DG5TKE Weather Reports


time (UTC)temp
C
wind
direction
speed
KPH
gust
KPH
rain 1hr
cm
rain 24hr
cm
rain mn
cm
humidity
%
barometer
mb
20260508165003 10 32 4.8 9.7 0.00 0.05 0.00 85 1017.4
20260508164003 10 37 4.8 11.3 0.00 0.05 0.00 85 1017.4
20260508163006 10 24 4.8 9.7 0.00 0.08 0.00 85 1017.4
20260508162003 10 22 1.6 12.9 0.00 0.08 0.00 84 1017.3
20260508161003 10 24 1.6 6.4 0.00 0.10 0.00 84 1017.4
20260508160003 10 39 4.8 9.7 0.00 0.10 0.00 82 1017.4
20260508155003 10 46 4.8 12.9 0.00 0.13 0.00 82 1017.4
20260508154003 11 39 6.4 14.5 0.00 0.13 0.00 82 1017.4
20260508153003 11 46 4.8 14.5 0.00 0.15 0.00 82 1017.4
20260508152003 11 17 1.6 9.7 0.00 0.15 0.00 82 1017.3
20260508151217 11 27 1.6 4.8 0.00 0.15 0.00 82 1017.3
20260508150004 11 4 1.6 8.0 0.00 0.15 0.00 81 1017.4
20260508145006 11 45 1.6 4.8 0.00 0.18 0.00 81 1017.4
20260508144217 11 40 3.2 8.0 0.00 0.20 0.00 81 1017.4
20260508143217 11 34 1.6 9.7 0.00 0.23 0.00 81 1017.5
20260508142003 11 10 3.2 8.0 0.00 0.25 0.00 82 1017.5
20260508141006 11 11 4.8 9.7 0.00 0.28 0.00 82 1017.5
20260508140004 11 53 6.4 12.9 0.00 0.30 0.00 81 1017.5
20260508135003 11 37 6.4 14.5 0.00 0.33 0.00 81 1017.5
20260508134006 11 40 4.8 12.9 0.00 0.36 0.00 80 1017.6
20260508133006 11 20 4.8 11.3 0.00 0.38 0.00 81 1017.5
20260508132218 11 35 6.4 16.1 0.00 0.41 0.00 81 1017.4
20260508131218 11 43 6.4 14.5 0.00 0.43 0.00 80 1017.4
20260508130220 11 56 6.4 16.1 0.00 0.46 0.00 80 1017.5
20260508125003 11 54 6.4 11.3 0.00 0.51 0.00 80 1017.5
20260508124003 11 66 6.4 12.9 0.00 0.51 0.00 80 1017.6
20260508123218 11 65 4.8 16.1 0.00 0.56 0.00 81 1017.6
20260508122006 11 58 4.8 14.5 0.00 0.61 0.00 82 1017.5
20260508121006 11 25 6.4 14.5 0.00 0.61 0.00 83 1017.6
20260508120006 11 6 6.4 14.5 0.00 0.64 0.00 84 1017.6
20260508115006 11 8 6.4 16.1 0.00 0.66 0.00 85 1017.6
20260508114006 11 21 6.4 14.5 0.00 0.71 0.00 84 1017.7
20260508113006 11 52 6.4 14.5 0.00 0.71 0.00 83 1017.7
20260508112006 11 42 3.2 12.9 0.00 0.76 0.00 82 1017.6
20260508111217 11 31 3.2 8.0 0.00 0.79 0.00 83 1017.7
20260508110006 11 31 3.2 9.7 0.00 0.84 0.00 83 1017.7
20260508105221 11 61 3.2 11.3 0.00 0.86 0.00 83 1017.7
20260508104003 11 82 3.2 8.0 0.00 0.89 0.00 86 1017.8
20260508103003 10 81 3.2 9.7 0.00 0.94 0.00 87 1017.8
20260508102006 10 74 3.2 6.4 0.00 0.99 0.00 89 1017.9
20260508101006 10 82 1.6 6.4 0.00 0.99 0.00 91 1018.0
20260508100003 9 0 0.0 3.2 0.00 1.04 0.00 92 1018.2
20260508095003 8 0 0.0 0.0 0.00 1.07 0.00 92 1018.2
20260508094003 8 0 0.0 0.0 0.00 1.09 0.00 93 1018.2
20260508093003 8 0 0.0 0.0 0.00 1.12 0.00 93 1018.3
20260508092006 8 0 0.0 0.0 0.00 1.17 0.00 94 1018.3
20260508091006 8 41 1.6 4.8 0.00 1.19 0.00 94 1018.3
20260508090004 8 37 3.2 6.4 0.00 1.24 0.00 95 1018.2
20260508085003 8 40 1.6 4.8 0.00 1.27 0.00 95 1018.2
20260508084003 8 0 0.0 0.0 0.00 1.30 0.00 95 1018.1
20260508083006 8 0 0.0 0.0 0.00 1.35 0.00 96 1018.0
20260508082003 8 12 1.6 3.2 0.00 1.37 0.00 96 1018.0
20260508081003 7 14 0.0 4.8 0.00 1.42 0.00 95 1017.9
20260508080218 7 0 0.0 0.0 0.00 1.45 0.00 96 1017.8
20260508075218 7 0 0.0 0.0 0.00 1.47 0.00 96 1017.8
20260508074218 7 0 0.0 0.0 0.00 1.50 0.00 96 1017.7
20260508073003 7 0 0.0 0.0 0.00 1.55 0.00 96 1017.7
20260508072003 7 11 1.6 3.2 0.00 1.55 0.00 96 1017.7
20260508071003 7 27 1.6 8.0 0.00 1.60 0.00 96 1017.5
20260508070220 7 49 1.6 6.4 0.00 1.65 0.00 96 1017.5
20260508065003 7 0 0.0 4.8 0.00 1.68 0.00 96 1017.4
20260508064003 7 335 0.0 3.2 0.00 1.73 0.00 96 1017.4
20260508063003 7 2 1.6 4.8 0.00 1.78 0.00 96 1017.3
20260508062006 7 30 1.6 8.0 0.00 1.80 0.00 96 1017.1
20260508061003 7 43 1.6 6.4 0.00 1.85 0.00 96 1017.1
20260508060003 7 16 3.2 4.8 0.00 1.91 0.00 96 1017.0
20260508055003 7 25 3.2 6.4 0.00 1.96 0.00 96 1016.9
20260508054006 7 23 1.6 6.4 0.00 2.01 0.00 96 1016.8
20260508053003 7 33 1.6 6.4 0.00 2.03 0.00 96 1016.7
20260508052003 7 25 3.2 6.4 0.00 2.11 0.00 96 1016.7
20260508051006 7 22 1.6 4.8 0.00 2.18 0.00 96 1016.7
20260508050003 7 17 1.6 6.4 0.00 2.24 0.00 96 1016.6
20260508045006 7 0 0.0 0.0 0.00 2.39 0.00 96 1016.6
20260508044217 7 0 0.0 0.0 0.00 2.49 0.00 96 1016.6
20260508043003 7 0 0.0 0.0 0.00 2.59 0.00 96 1016.5
20260508042003 7 0 0.0 0.0 0.00 2.64 0.00 96 1016.4
20260508041006 7 0 0.0 0.0 0.00 2.72 0.00 96 1016.4
20260508040003 7 0 0.0 0.0 0.00 2.77 0.00 96 1016.4
20260508035003 7 0 0.0 0.0 0.00 2.90 0.00 96 1016.4
20260508034006 7 0 0.0 0.0 0.00 3.07 0.00 96 1016.3
20260508033006 7 0 0.0 0.0 0.00 3.33 0.00 96 1016.3
20260508032003 7 0 0.0 0.0 0.00 3.51 0.00 96 1016.2
20260508031008 7 0 0.0 0.0 0.00 3.71 0.00 96 1016.2
20260508030003 7 0 0.0 0.0 0.00 3.89 0.00 96 1016.1
20260508025006 7 0 0.0 0.0 0.00 3.94 0.00 96 1016.1
20260508024220 7 0 0.0 0.0 0.00 3.94 0.00 96 1016.1
20260508023007 7 0 0.0 0.0 0.00 3.94 0.00 96 1016.1
20260508022006 7 0 0.0 0.0 0.00 3.94 0.00 96 1016.1
20260508021006 7 0 0.0 0.0 0.00 3.94 0.00 96 1016.1
20260508020003 7 0 0.0 0.0 0.00 3.94 0.00 96 1016.1
20260508015003 7 0 0.0 0.0 0.00 3.94 0.00 96 1016.1
20260508014003 7 0 0.0 0.0 0.00 3.94 0.00 96 1016.1
20260508013006 7 0 0.0 0.0 0.00 3.94 0.00 96 1016.1
20260508012003 6 0 0.0 4.8 0.00 3.94 0.00 96 1016.2
20260508011003 6 0 0.0 0.0 0.00 3.94 0.00 96 1016.2
20260508010003 6 0 0.0 0.0 0.00 3.94 0.00 96 1016.2
20260508005003 6 0 0.0 0.0 0.00 3.94 0.00 96 1016.2
20260508004006 6 0 0.0 0.0 0.00 3.94 0.00 96 1016.1
20260508003006 6 0 0.0 0.0 0.00 3.94 0.00 96 1016.1
20260508002007 7 0 0.0 0.0 0.00 3.94 0.00 95 1016.1
20260508001003 7 0 0.0 0.0 0.00 3.94 0.00 95 1016.2
20260508000004 7 0 0.0 0.0 0.00 3.96 0.00 95 1016.2
20260507235006 7 0 0.0 0.0 0.00 3.96 0.00 95 1016.3
20260507234008 7 0 0.0 0.0 0.00 3.96 0.00 96 1016.2
20260507233006 7 0 0.0 0.0 0.00 3.96 0.00 96 1016.3
20260507232003 7 0 0.0 0.0 0.00 3.96 0.00 96 1016.2
20260507231006 7 0 0.0 0.0 0.00 3.96 0.00 96 1016.2
20260507230003 7 0 0.0 0.0 0.00 3.96 0.00 96 1016.2
20260507225007 7 0 0.0 0.0 0.00 3.96 0.00 96 1016.1
20260507224006 7 0 0.0 0.0 0.00 3.96 0.00 96 1016.1
20260507223006 7 0 0.0 0.0 0.00 3.96 0.00 96 1016.1
20260507222006 7 325 1.6 3.2 0.00 3.96 0.00 95 1016.1
20260507221216 7 324 1.6 4.8 0.00 3.96 0.00 95 1016.1
20260507220004 7 0 0.0 3.2 0.00 3.99 0.00 95 1016.0
20260507215006 7 0 0.0 0.0 0.00 3.99 3.99 95 1016.0
20260507214003 7 0 0.0 0.0 0.00 3.99 3.99 95 1016.0
20260507213003 7 336 0.0 1.6 0.00 3.99 3.99 95 1015.8
20260507212003 7 336 0.0 3.2 0.00 3.99 3.99 95 1015.9
20260507211003 7 0 0.0 3.2 0.00 3.99 3.99 95 1016.0
20260507210218 7 0 0.0 0.0 0.00 3.99 3.99 95 1016.0
20260507205003 7 303 1.6 3.2 0.00 3.99 3.99 95 1016.0
20260507204003 7 299 1.6 4.8 0.00 3.99 3.99 95 1015.9
20260507203003 7 0 0.0 3.2 0.00 3.99 3.99 95 1015.8
20260507202003 7 0 0.0 0.0 0.00 3.99 3.99 95 1015.7
20260507201003 7 0 0.0 0.0 0.00 3.99 3.99 95 1015.6
20260507200003 7 22 1.6 3.2 0.03 3.99 3.99 95 1015.4
20260507195003 7 27 1.6 4.8 0.03 3.99 3.99 95 1015.4
20260507194003 7 29 3.2 8.0 0.03 3.99 3.99 95 1015.4
20260507193003 7 32 1.6 6.4 0.03 3.99 3.99 95 1015.3
20260507192003 7 12 1.6 3.2 0.03 3.99 3.99 95 1015.2
20260507191003 7 13 1.6 4.8 0.03 3.99 3.99 95 1015.0
20260507190004 7 15 3.2 9.7 0.00 3.96 3.96 95 1014.8
20260507185003 7 18 3.2 9.7 0.00 3.96 3.96 95 1014.7
20260507184003 7 12 3.2 8.0 0.00 3.96 3.96 95 1014.7
20260507183003 7 6 3.2 9.7 0.00 3.96 3.96 95 1014.6
20260507182003 8 356 1.6 6.4 0.00 3.96 3.96 95 1014.6
20260507181003 8 21 3.2 6.4 0.00 3.96 3.96 95 1014.4
20260507180003 8 42 1.6 4.8 0.03 3.96 3.96 95 1014.3
20260507175006 8 76 1.6 4.8 0.05 3.96 3.96 95 1014.3
20260507174003 8 31 0.0 3.2 0.05 3.96 3.96 95 1014.2
20260507173003 8 11 1.6 4.8 0.05 3.96 3.96 96 1014.1
20260507172003 8 15 1.6 3.2 0.05 3.96 3.96 96 1014.0
20260507171003 8 34 3.2 6.4 0.08 3.96 3.96 96 1013.9
20260507170003 8 46 1.6 4.8 0.05 3.94 3.94 96 1013.9